Weather in Isilkul

Russia / Omsk Oblast     54°54′42″N   71°16′01″E
temp.,
°C
wind,
m/s
gust,
m/s
humid.,
%
clouds,
%
prec.,
mm/h
press.,
hPa
HPBL,
m
25 may, wed
wed2500:00+18sse48425 0.0 1015101
03:00+17sse48435 0.0 1016104
06:00+16sse46505 0.0 101691
09:00+23sse46367 0.0 1016353
12:00+27sse562680 0.0 10152330
15:00+29ese562446 0.0 10143041
18:00+28e673052 0.0 10131538
21:00+23e61343100 0.0 1013317
26 may, thu
thu2600:00+21ese5143964 0.0 1014328
03:00+18ese4114727 0.0 1013203
06:00+17ese410560 0.0 1013175
09:00+22ese68440 0.0 1012518
12:00+27se78310 0.0 10111703
15:00+29se78260 0.0 10092417
18:00+29ese792771 0.0 10082304
21:00+23ese5134059 0.0 1006288
27 may, fri
fri2700:00+22ese71541100 0.0 1005518
03:00+18sse8137122 0.9 1004364
06:00+16s511780 0.9 1004494
09:00+16ssw7973100 0.0 10051087
12:00+14sw81077100 0.0 1007880
15:00+13wsw81176100 0.0 1009986
18:00+13w81272100 0.1 10111082
21:00+13w410715 0.0 1012920
28 may, sat
sat2800:00+9wsw35810 0.0 101370
03:00+8wsw49764 0.0 1013168
06:00+8wsw411805 0.0 1013229
09:00+15w6105314 0.0 1013901
12:00+19w89405 0.0 10132127
15:00+21w78365 0.0 10132336
18:00+21wnw783869 0.0 10132298
21:00+16w3460100 0.0 101452
29 may, sun
sun2900:00+15wnw4106695 0.0 1015235
03:00+12w497627 0.0 1017160
06:00+11w49802 0.0 1018194
09:00+18wnw58580 0.0 1019643
12:00+21nw67442 0.0 10191982
15:00+23nw67385 0.0 10192358
18:00+23nw5639100 0.0 10192127
21:00+19nw1259100 0.0 102011